When you browse on this site, cookies collect data to enhance your experience and personalize the content and advertising you see.
Visit our Privacy Policy to learn more. By continuing to use the site, you agree to this use of cookies and data.
  • In Belgium
  • List of Countries
  • For 7 days
  • Water Temperature
  • Satellite Maps
  • Weather Map
  • Weather Widgets
  • user-avatar
    Login

    Hourly Weather Rachow

    Today, 24 January, Thursday

    Time Temperature Precipitation Wind Pressure Humidity
    00:00 -7°C° 0 mm 5 mps 743 mmHg 68%
    01:00 -7°C° 0 mm 4 mps 743 mmHg 69%
    02:00 -7°C° 0 mm 4 mps 743 mmHg 69%
    03:00 -8°C° 0 mm 4 mps 743 mmHg 69%
    04:00 -8°C° 0 mm 4 mps 743 mmHg 69%
    05:00 -8°C° 0 mm 4 mps 744 mmHg 69%
    06:00 -8°C° 0 mm 4 mps 744 mmHg 69%
    07:00 -8°C° 0 mm 4 mps 744 mmHg 69%
    08:00 -8°C° 0 mm 4 mps 744 mmHg 67%
    09:00 -8°C° 0 mm 4 mps 745 mmHg 66%
    10:00 -8°C° 0 mm 5 mps 745 mmHg 65%
    11:00 -7°C° 0 mm 4 mps 745 mmHg 63%
    12:00 -7°C° 0 mm 4 mps 745 mmHg 62%
    13:00 -7°C° 0 mm 4 mps 745 mmHg 60%
    14:00 -7°C° 0 mm 4 mps 745 mmHg 61%
    15:00 -7°C° 0 mm 4 mps 745 mmHg 62%
    16:00 -7°C° 0 mm 4 mps 745 mmHg 63%
    17:00 -7°C° 0 mm 4 mps 746 mmHg 65%
    18:00 -7°C° 0 mm 4 mps 746 mmHg 66%
    19:00 -7°C° 0 mm 4 mps 746 mmHg 67%
    20:00 -6°C° 0 mm 3 mps 746 mmHg 67%
    21:00 -6°C° 0 mm 3 mps 746 mmHg 67%
    22:00 -6°C° 0 mm 3 mps 747 mmHg 67%
    23:00 -5°C° 0 mm 2 mps 747 mmHg 67%

    Tomorrow, 25 January, Friday

    Time Temperature Precipitation Wind Pressure Humidity
    00:00 -5°C° 0 mm 2 mps 747 mmHg 67%
    01:00 -5°C° 0 mm 2 mps 747 mmHg 68%
    02:00 -5°C° 0 mm 2 mps 747 mmHg 69%
    03:00 -5°C° 0 mm 2 mps 747 mmHg 70%
    04:00 -6°C° 0 mm 2 mps 747 mmHg 71%
    05:00 -6°C° 0 mm 2 mps 747 mmHg 72%
    06:00 -6°C° 0 mm 2 mps 747 mmHg 72%
    07:00 -6°C° 0 mm 2 mps 747 mmHg 73%
    08:00 -6°C° 0 mm 2 mps 748 mmHg 72%
    09:00 -5°C° 0 mm 2 mps 748 mmHg 71%
    10:00 -5°C° 0 mm 2 mps 748 mmHg 70%
    11:00 -5°C° 0 mm 2 mps 748 mmHg 67%
    12:00 -6°C° 0 mm 3 mps 748 mmHg 65%
    13:00 -5°C° 0 mm 3 mps 748 mmHg 63%
    14:00 -5°C° 0 mm 3 mps 749 mmHg 62%
    15:00 -5°C° 0 mm 3 mps 749 mmHg 61%
    16:00 -5°C° 0 mm 4 mps 749 mmHg 60%
    17:00 -7°C° 0 mm 4 mps 750 mmHg 61%
    18:00 -7°C° 0 mm 4 mps 750 mmHg 62%
    19:00 -6°C° 0 mm 3 mps 750 mmHg 63%
    20:00 -6°C° 0 mm 3 mps 750 mmHg 64%
    21:00 -6°C° 0 mm 3 mps 750 mmHg 65%
    22:00 -6°C° 0 mm 3 mps 751 mmHg 66%
    23:00 -7°C° 0 mm 3 mps 750 mmHg 67%

    Day after tomorrow, 26 January, Saturday

    Time Temperature Precipitation Wind Pressure Humidity
    00:00 -7°C° 0 mm 3 mps 750 mmHg 68%
    01:00 -7°C° 0 mm 3 mps 750 mmHg 69%
    02:00 -6°C° 0 mm 2 mps 750 mmHg 69%
    03:00 -6°C° 0 mm 2 mps 750 mmHg 68%
    04:00 -6°C° 0 mm 2 mps 749 mmHg 68%
    05:00 -7°C° 0 mm 3 mps 749 mmHg 64%
    06:00 -7°C° 0 mm 3 mps 748 mmHg 61%
    07:00 -7°C° 0 mm 3 mps 748 mmHg 57%
    08:00 -7°C° 0 mm 4 mps 747 mmHg 54%
    09:00 -4°C° 0 mm 4 mps 747 mmHg 52%
    10:00 -4°C° 0 mm 5 mps 746 mmHg 49%
    11:00 -2°C° 0.8 mm 5 mps 745 mmHg 60%
    12:00 -2°C° 0.8 mm 5 mps 745 mmHg 71%
    13:00 -1°C° 0.8 mm 5 mps 744 mmHg 82%
    14:00 -1°C° 0.5 mm 6 mps 743 mmHg 82%
    15:00 -1°C° 0.5 mm 6 mps 743 mmHg 83%
    16:00 +1°C° 0.5 mm 6 mps 743 mmHg 84%
    17:00 +1°C° 0.1 mm 6 mps 743 mmHg 85%
    18:00 +1°C° 0.1 mm 6 mps 743 mmHg 86%
    19:00 +1°C° 0.1 mm 6 mps 743 mmHg 87%
    20:00 +1°C° 0.1 mm 6 mps 743 mmHg 88%
    21:00 +1°C° 0.1 mm 5 mps 743 mmHg 89%
    22:00 +1°C° 0.1 mm 5 mps 743 mmHg 90%
    23:00 0°C° 0.4 mm 4 mps 743 mmHg 91%

    27 January, Sunday

    Time Temperature Precipitation Wind Pressure Humidity
    00:00 +1°C° 0.4 mm 3 mps 743 mmHg 91%
    01:00 +1°C° 0.4 mm 3 mps 743 mmHg 92%
    02:00 +1°C° 0.2 mm 3 mps 742 mmHg 91%
    03:00 +2°C° 0.2 mm 2 mps 742 mmHg 91%
    04:00 +2°C° 0.2 mm 2 mps 741 mmHg 90%
    05:00 0°C° 0 mm 3 mps 741 mmHg 89%
    06:00 0°C° 0 mm 3 mps 741 mmHg 88%
    07:00 0°C° 0 mm 3 mps 740 mmHg 86%
    08:00 0°C° 0 mm 4 mps 740 mmHg 83%
    09:00 0°C° 0 mm 5 mps 739 mmHg 80%
    10:00 +1°C° 0 mm 5 mps 739 mmHg 77%
    11:00 +2°C° 0 mm 5 mps 738 mmHg 75%
    12:00 +2°C° 0 mm 5 mps 738 mmHg 73%
    13:00 +3°C° 0 mm 5 mps 737 mmHg 70%
    14:00 +2°C° 0 mm 5 mps 737 mmHg 71%
    15:00 +2°C° 0 mm 5 mps 736 mmHg 72%
    16:00 +1°C° 0 mm 4 mps 736 mmHg 73%
    17:00 +1°C° 0 mm 5 mps 736 mmHg 73%
    18:00 +1°C° 0 mm 5 mps 736 mmHg 73%
    19:00 0°C° 0 mm 5 mps 736 mmHg 74%
    20:00 0°C° 0 mm 5 mps 735 mmHg 75%
    21:00 0°C° 0 mm 5 mps 735 mmHg 76%
    22:00 0°C° 0 mm 5 mps 735 mmHg 77%
    23:00 0°C° 0 mm 5 mps 735 mmHg 77%

    28 January, Monday

    Time Temperature Precipitation Wind Pressure Humidity
    00:00 0°C° 0 mm 5 mps 735 mmHg 77%
    01:00 0°C° 0 mm 5 mps 734 mmHg 77%
    02:00 0°C° 0 mm 5 mps 734 mmHg 78%
    03:00 0°C° 0 mm 5 mps 734 mmHg 79%
    04:00 0°C° 0 mm 5 mps 733 mmHg 80%
    05:00 0°C° 0 mm 5 mps 733 mmHg 79%
    06:00 0°C° 0 mm 5 mps 733 mmHg 79%
    07:00 -1°C° 0 mm 5 mps 733 mmHg 78%
    08:00 -1°C° 0 mm 6 mps 734 mmHg 75%
    09:00 0°C° 0 mm 7 mps 734 mmHg 71%
    10:00 +1°C° 0 mm 8 mps 734 mmHg 68%
    11:00 +1°C° 0 mm 8 mps 734 mmHg 66%
    12:00 +2°C° 0 mm 8 mps 734 mmHg 65%
    13:00 +3°C° 0 mm 7 mps 734 mmHg 63%
    14:00 +3°C° 0 mm 7 mps 734 mmHg 67%
    15:00 +2°C° 0 mm 7 mps 735 mmHg 71%
    16:00 +1°C° 0 mm 6 mps 735 mmHg 75%
    17:00 +1°C° 0 mm 6 mps 736 mmHg 77%
    18:00 0°C° 0 mm 5 mps 737 mmHg 79%
    19:00 -1°C° 0 mm 5 mps 737 mmHg 81%
    20:00 -1°C° 0 mm 5 mps 738 mmHg 81%
    21:00 -2°C° 0 mm 4 mps 738 mmHg 81%
    22:00 -2°C° 0 mm 4 mps 739 mmHg 81%
    23:00 -2°C° 0 mm 4 mps 739 mmHg 81%

    29 January, Tuesday

    Time Temperature Precipitation Wind Pressure Humidity
    00:00 -2°C° 0 mm 4 mps 739 mmHg 82%
    01:00 -3°C° 0 mm 4 mps 740 mmHg 82%
    02:00 -3°C° 0 mm 4 mps 740 mmHg 82%
    03:00 -3°C° 0 mm 4 mps 740 mmHg 83%
    04:00 -2°C° 0 mm 3 mps 739 mmHg 83%
    05:00 -2°C° 0 mm 3 mps 740 mmHg 83%
    06:00 -2°C° 0 mm 3 mps 740 mmHg 83%
    07:00 -4°C° 0 mm 3 mps 740 mmHg 82%
    08:00 -2°C° 0 mm 3 mps 740 mmHg 78%
    09:00 -1°C° 0 mm 3 mps 740 mmHg 74%
    10:00 0°C° 0 mm 3 mps 740 mmHg 70%
    11:00 +1°C° 0 mm 3 mps 740 mmHg 66%
    12:00 +1°C° 0 mm 3 mps 740 mmHg 63%
    13:00 +3°C° 0 mm 2 mps 740 mmHg 60%
    14:00 +1°C° 0 mm 3 mps 739 mmHg 63%
    15:00 0°C° 0 mm 3 mps 739 mmHg 66%
    16:00 0°C° 0 mm 3 mps 739 mmHg 69%
    17:00 -1°C° 0 mm 3 mps 739 mmHg 70%
    18:00 -1°C° 0 mm 3 mps 739 mmHg 71%
    19:00 -2°C° 0 mm 3 mps 739 mmHg 72%
    20:00 -3°C° 0 mm 4 mps 739 mmHg 73%
    21:00 -2°C° 0 mm 4 mps 739 mmHg 73%
    22:00 -2°C° 0 mm 4 mps 739 mmHg 74%
    23:00 -2°C° 0.3 mm 4 mps 739 mmHg 78%
    Show more